Showing default

OPS 9315 (IDSCS 5), 2219

Orbit data source: Space-Track

OPS 9315 (IDSCS 5), 2219 is a payload satellite owned by USAF SSD (US) in GEO that was launched on Thu, 16 Jun 1966 UTC via a TITAN IIIC launch vehicle from the Air Force Eastern Test Range (AFETR). Payload-class satellites include a variety of spacecraft equipped with specific instruments for various scientific and technological missions. These include communications satellites like Starlink; space stations such as the ISS; scientific satellites like the Hubble; Earth observation satellites from companies like Planet Labs, Umbra, and HawkEye 360; GPS; miniature CubeSats for education and research; and military/defense satellites.

Loading next visibility...
Identifier
2219, 1966-053F
Orbit
GEO
Last TLE update
4 days ago
Origin
Manufacturer
Philco-Ford WDL
Mission
Non-operational Defense Communications
Bus & Motor
IDCSP, Unknown motor
Mass
45 kg wet, 45 kg dry
Launch date (UTC)
1966-06-16 (59 years ago)
Launch vehicle
TITAN IIIC
Launch site
Air Force Eastern Test Range (AFETR)
Object type
Payload
Rocket body
Debris
Shape & HBR
Ico Poly, 0.9 m
Radar Cross Section
0.926 m², Large (>1 m²)

Expand to show TLE details & history

TLE from 4 days ago
0 OPS 9315 (IDSCS 5)
1 02219U 66053F   25178.01140574 -.00000088  00000-0  00000-0 0  9996
2 02219   7.8831  48.5802 0051966 179.9749 179.9655  1.07398396 52716
Epoch: 2025-06-27T00:16Z
TLE epoch observation values (Epoch: 2025-06-27T00:16:25.455Z)
Latitude
0.00002°
Longitude
129.06205°
Altitude
34,108.696 km
Speed
3.13 km/s
True Right ascension
03h 14m 09s
True Declination
0° 00' 00"
Sunlit
Object was in daylight at epoch
Visualization orbit readout
Latitude
-2.21675°
Longitude
-34.77881°
Altitude
33,698.586 km
Speed
3.162 km/s
Apparent Right ascension
16h 09m 23s
Apparent Declination
-9° 01' 13"
Sunlit
Object is in daylight
Visualization observer readout
Local Sidereal Time
17:27:42
Azimuth
204.769° SW
Elevation
37.813°
Doppler factor
1
Orbital elements
Apogee altitude
34,110.459 km
Perigee altitude
33,691.828 km
Semi-major axis
40,279.28 km
Eccentricity
0.0052
Inclination
7.8831°
RAAN
48.5802°
Arg. of periapsis
179.9749°
True anomaly
Unknown
Mean anomaly
179.9655°
Eccentric anomaly
Unknown
Mean motion
0.26849 °/min
Orbital period
1,340.86 mins
BSTAR
0
Loading historical data...
2219 neighbors
Loading maneuver chart data...
Loading SW <> Apogee altitude chart data...
Loading historical data...
Loading historical data...
Loading historical data...
Loading historical data...
Loading historical data...
Loading historical data...
Loading historical data...

OPS 9315 (IDSCS 5) Visibility forecast

Observer location: undefined°, undefined°

Span
Click to sort rows by Start time (UTC) header in descending order
Start Az.
Max El. time (UTC)
Max El. Az.
Max El.
End time (UTC)
End Az.
1440 mins2025-07-01 05:50:01.301Z204.76° SW2025-07-01 21:42:01.301Z181.627° SSW38.411°2025-07-02 05:50:01.301Z168.134° S
|